Temp
3 3 3 3 3 3 2 2 3 3 3 2 2 2 2 2 2 2 2 1 1 1 1 1 1 2 2 2 2 3 3 3 3 3 4 4 4 4 5 5 5 5 5 5 5 5 4 4 4 4 4 4 4 4 4 4 4 4 4 4 4 3 3 3 3 3 3 4 4
3 3 3 3 3 3 2 2 3 3 3 3 2 2 2 2 2 2 1 1 1 1 1 2 2 2 2 2 2 2 3 3 3 3 4 4 4 4 4 4 4 5 5 5 5 5 4 4 4 4 4 4 4 4 4 4 4 4 4 4 4 3 3 3 3 3 3 3 3
3 3 3 3 3 3 3 2 2 2 2 3 3 2 2 2 2 2 2 2 2 2 2 2 2 2 2 2 2 2 3 3 3 3 3 3 3 3 4 4 4 4 4 5 5 4 4 4 4 4 4 4 3 3 3 3 4 4 4 4 4 4 3 3 3 3 3 3 3
4 4 4 4 4 3 3 3 2 2 2 3 3 3 3 2 2 2 2 2 2 2 2 2 3 3 3 3 3 3 3 3 3 3 3 3 3 3 3 3 4 4 4 4 4 4 4 4 4 4 4 3 3 3 3 3 4 4 4 4 4 4 3 3 3 3 3 3 3
4 4 4 4 4 4 3 3 3 3 3 3 3 3 3 3 3 2 2 2 2 2 3 3 3 3 3 3 3 3 3 3 3 3 3 3 3 3 3 3 3 3 3 3 4 4 4 3 3 3 3 3 3 3 3 3 3 4 4 4 4 4 3 3 3 3 3 3 3
4 4 4 4 4 4 4 3 3 3 3 3 3 2 3 3 3 2 2 2 2 3 3 3 4 4 4 4 4 4 4 4 4 3 3 3 3 3 3 3 3 3 3 3 3 3 3 3 3 3 3 3 3 3 3 3 3 3 3 4 4 4 4 3 3 3 3 3 3
4 4 4 4 4 4 4 4 3 3 3 3 3 3 3 3 3 3 3 3 3 3 3 4 4 4 4 4 4 4 4 4 4 4 4 3 3 3 3 2 3 2 2 2 3 3 3 2 2 2 2 2 2 3 3 3 3 3 3 3 3 3 3 3 3 3 3 3 3
3 4 4 4 4 4 4 4 3 3 3 3 3 3 3 3 3 3 3 3 3 3 3 3 3 3 4 4 4 4 4 4 4 4 4 4 4 4 3 3 3 2 2 2 2 2 2 2 2 2 2 2 2 2 2 2 3 3 3 3 3 3 3 3 3 3 3 3 3
3 3 3 3 4 4 4 4 3 3 3 3 3 3 3 3 3 3 3 3 3 3 3 3 3 3 3 4 4 4 4 4 4 4 4 4 4 4 4 3 3 3 2 2 2 2 2 1 1 1 1 1 1 1 2 2 2 2 2 3 3 3 3 3 3 3 3 3 3
3 3 3 3 3 3 3 3 3 3 3 3 3 3 3 3 3 3 3 3 2 2 3 3 3 3 3 3 3 3 3 3 3 4 4 4 4 4 4 4 3 3 3 3 2 2 2 1 1 1 1 1 1 1 1 1 2 2 2 2 2 2 2 3 3 3 3 3 3
3 3 3 3 3 3 3 3 3 3 3 3 3 3 3 3 3 3 2 2 2 2 2 2 3 3 3 3 3 3 3 3 3 3 3 4 4 4 4 4 4 4 3 3 3 2 2 1 1 1 1 1 1 1 1 1 1 1 1 2 2 2 2 2 2 2 2 3 3
3 3 3 3 3 3 3 3 3 3 3 3 3 3 3 3 3 2 2 2 2 2 2 2 2 2 2 2 2 2 3 3 3 3 3 3 3 3 3 3 3 3 3 3 3 3 2 2 2 2 1 1 1 1 1 1 1 1 1 1 1 1 2 2 2 2 2 2 2
3 3 3 3 3 3 3 3 3 3 3 3 3 3 2 2 2 2 2 2 2 2 2 2 2 2 2 2 2 2 2 2 2 3 3 3 3 3 3 3 3 3 3 3 3 3 3 3 3 3 2 2 1 1 1 1 1 1 1 1 1 1 1 1 1 2 2 2 2
3 3 3 3 3 3 3 3 3 2 2 2 2 2 2 2 2 2 2 2 2 2 2 2 2 2 2 2 2 2 2 2 2 2 2 2 2 3 3 3 3 3 3 3 3 3 3 3 3 3 3 3 2 2 1 1 1 1 1 1 1 1 1 1 1 1 1 2 2
3 3 3 3 3 2 2 2 2 2 2 2 2 2 2 2 2 2 2 2 2 2 2 2 2 2 2 2 2 2 2 2 2 2 2 2 2 2 2 2 2 2 2 2 2 2 2 3 3 3 3 3 3 3 2 2 1 1 1 1 1 1 1 1 1 1 1 1 1
2 2 2 2 2 2 2 2 2 2 1 1 1 1 1 1 1 1 1 1 1 1 1 2 2 2 2 2 2 2 2 2 2 2 2 2 2 2 2 2 2 2 2 2 2 2 2 2 2 2 2 2 2 3 3 3 2 2 2 1 1 1 1 1 1 1 1 1 1
2 2 2 2 2 2 1 1 1 1 1 1 1 1 1 1 1 1 1 1 1 1 1 1 2 2 2 2 2 2 2 1 1 1 1 1 1 1 1 1 1 1 1 1 1 1 1 2 1 1 1 1 1 2 2 2 2 2 2 2 2 1 1 1 1 1 1 1 1
1 1 1 1 1 1 1 1 1 1 1 1 1 1 1 1 1 1 1 1 1 1 1 1 1 1 1 2 2 1 1 1 1 1 1 1 1 1 1 0 0 0 0 0 0 0 0 1 1 1 1 0 0 1 1 1 1 2 2 3 3 2 2 1 1 1 1 1 1
1 1 1 1 1 1 1 1 1 1 1 1 1 1 1 1 1 1 1 1 1 1 1 1 1 1 1 2 2 2 2 1 1 1 1 1 1 1 0 0 0 0 0 -0 -0 -0 -0 -0 -0 -0 -0 -0 -0 0 0 0 0 1 1 2 2 2 3 2 2 1 1 1 1
1 1 1 1 1 1 1 1 1 1 1 1 1 1 1 1 1 1 1 1 1 1 1 1 1 1 2 2 2 2 2 2 2 2 2 1 1 1 1 0 0 0 0 -0 -0 -0 -0 -0 -0 -0 -0 -0 -0 0 0 0 0 0 0 0 1 1 2 2 2 2 2 1 1
1 1 1 1 0 0 0 0 0 0 0 0 0 1 1 1 1 1 1 1 1 1 1 1 1 1 2 2 2 2 2 2 2 2 2 2 1 1 1 1 1 1 0 0 -0 -0 -0 -0 -0 -0 -0 -0 0 0 0 0 0 0 0 0 0 0 1 1 2 2 2 2 2
0 0 0 0 0 0 0 0 0 0 0 0 0 0 0 1 1 1 1 1 1 1 1 1 1 1 2 2 2 2 2 2 2 2 2 1 1 1 1 1 1 1 1 0 0 0 -0 -0 -0 -0 -0 -0 0 0 0 0 0 0 0 0 0 0 0 0 1 1 2 2 2
0 0 0 0 0 0 0 0 0 0 0 0 0 0 0 0 0 1 1 1 1 1 1 1 1 1 2 2 2 2 2 2 2 2 1 1 1 1 1 1 1 1 0 0 0 0 -0 -0 -0 -0 -0 -0 -0 0 0 0 0 0 0 0 0 0 0 -0 -0 0 0 1 2
0 0 0 0 0 0 0 0 0 0 0 0 0 0 0 0 0 1 1 1 1 1 1 1 1 1 1 2 2 2 2 2 2 1 1 1 1 1 1 1 0 0 0 0 0 0 -0 -1 -1 -0 -0 -0 -0 -0 0 0 0 0 0 0 0 0 0 0 -0 -0 -0 0 0
0 0 0 0 -0 -0 -0 -0 -0 0 0 0 0 0 0 0 1 1 1 1 1 1 1 1 1 1 1 1 1 1 1 1 1 1 1 1 1 1 0 0 0 -0 -0 0 0 0 -0 -1 -1 -1 -1 -0 -0 -0 -0 0 0 0 0 0 0 0 0 0 0 0 -0 -0 -0
0 0 -0 -0 -0 -0 -0 -0 -0 0 0 0 0 0 0 0 0 1 1 1 1 1 1 1 1 1 1 1 1 1 1 1 1 1 1 1 1 1 0 0 -0 -0 -0 0 0 0 -0 -1 -1 -1 -1 -1 -1 -0 -0 0 0 0 0 0 0 0 0 0 0 0 0 0 -0
0 -0 -0 -0 -0 -0 -0 -0 -0 -0 0 0 0 0 0 0 0 1 1 1 1 1 1 1 1 1 1 1 1 1 1 1 1 0 0 0 0 0 0 -0 -0 -0 -0 0 0 -0 -0 -1 -1 -1 -1 -1 -1 -1 -0 -0 -0 0 0 0 0 0 0 0 0 0 0 0 0
-0 -0 -0 -0 -0 -0 -0 -0 -0 -0 0 0 0 0 0 0 0 1 1 1 1 1 1 1 1 1 1 1 1 1 1 1 0 0 -0 -0 -0 -0 -0 -0 -0 -0 -0 0 0 -0 -0 -1 -1 -1 -1 -1 -1 -1 -1 -0 -0 -0 0 0 0 0 1 1 1 1 1 0 0
-0 -0 -0 -0 -0 -0 -0 -0 -0 -0 -0 0 0 0 0 0 0 0 0 1 1 1 1 1 1 1 1 1 1 1 0 0 -0 -0 -0 -0 -0 -1 -1 -1 -1 -0 -0 -0 -0 -0 -1 -1 -1 -1 -1 -1 -1 -1 -1 -1 -0 -0 -0 0 0 0 1 1 1 0 0 0 0
-0 -0 -0 -0 -0 -0 -0 -0 -0 -0 -0 0 0 0 0 0 0 0 0 1 1 1 1 1 1 1 1 0 0 0 -0 -0 -0 -1 -1 -1 -1 -1 -1 -1 -1 -1 -0 -0 -0 -1 -1 -1 -1 -1 -1 -1 -1 -1 -1 -1 -1 -0 -0 -0 0 0 0 0 0 0 0 0 0
-0 -0 -0 -1 -1 -1 -0 -0 -0 -0 -0 -0 0 0 0 0 0 0 0 1 1 1 1 1 1 1 0 0 -0 -0 -1 -1 -1 -1 -1 -1 -1 -1 -1 -1 -1 -1 -0 -0 -0 -1 -1 -1 -1 -1 -1 -2 -2 -1 -1 -1 -1 -1 -0 -0 -0 -0 -0 -0 -0 -0 -0 -0 -0
-0 -1 -1 -1 -1 -1 -0 -0 -0 -0 -0 -0 -0 -0 -0 0 0 0 0 0 1 1 1 0 0 0 -0 -0 -0 -1 -1 -1 -1 -1 -1 -1 -1 -1 -1 -1 -1 -1 -0 -0 -1 -1 -1 -1 -1 -2 -2 -2 -2 -2 -2 -1 -1 -1 -1 -1 -0 -0 -0 -0 -0 -0 -0 -0 -0
-1 -1 -1 -1 -1 -1 -0 -0 -0 -0 -0 -0 -0 -0 -0 0 0 0 0 0 0 0 -0 -0 -0 -1 -1 -1 -1 -1 -1 -1 -1 -1 -1 -1 -1 -1 -1 -1 -1 -1 -0 -0 -1 -1 -1 -1 -2 -2 -2 -2 -2 -2 -2 -1 -1 -1 -1 -1 -1 -1 -1 -1 -1 -1 -1 -1 -1
-1 -1 -1 -1 -1 -0 -0 -0 -0 -0 -0 -0 -0 -0 -0 0 0 0 0 0 -0 -0 -1 -1 -1 -1 -1 -1 -1 -1 -1 -1 -1 -1 -1 -1 -1 -1 -1 -1 -1 -1 -1 -1 -1 -1 -1 -1 -2 -2 -2 -2 -2 -2 -2 -1 -1 -1 -1 -1 -1 -1 -1 -1 -1 -1 -1 -1 -1
-0 -0 -0 -0 -0 -0 -0 -0 -0 -0 -0 -0 -0 -0 -0 0 0 -0 -0 -0 -0 -1 -1 -1 -1 -1 -1 -1 -1 -2 -2 -2 -2 -2 -2 -2 -2 -2 -2 -2 -1 -1 -1 -1 -1 -1 -2 -2 -2 -2 -2 -2 -2 -2 -2 -2 -1 -1 -1 -1 -1 -1 -1 -1 -1 -1 -1 -1 -1
-0 -0 -0 -0 -0 -0 -0 -0 -0 -0 -0 -0 -0 -0 -0 -0 -0 -0 -0 -1 -1 -1 -1 -1 -1 -1 -1 -1 -1 -1 -1 -2 -2 -2 -2 -2 -2 -2 -2 -2 -2 -2 -1 -2 -2 -2 -2 -2 -2 -2 -2 -2 -2 -2 -2 -2 -1 -1 -1 -1 -1 -1 -1 -1 -1 -1 -1 -1 -1
-0 -0 -0 -0 -0 -0 -0 -0 -0 -0 -0 -0 -0 -0 -0 -0 -0 -0 -1 -1 -1 -1 -1 -1 -1 -1 -1 -1 -1 -1 -1 -2 -2 -2 -2 -2 -2 -2 -2 -2 -2 -2 -2 -2 -2 -2 -2 -2 -2 -2 -2 -2 -2 -2 -2 -2 -2 -1 -1 -1 -1 -1 -1 -1 -1 -1 -1 -1 -2
-0 -0 -0 -0 -0 -0 -0 -0 -0 -0 -0 -0 -0 -0 -0 -1 -1 -1 -1 -1 -2 -2 -2 -1 -1 -1 -1 -1 -1 -2 -2 -2 -2 -2 -2 -2 -2 -2 -2 -2 -2 -2 -2 -2 -2 -2 -2 -2 -2 -2 -2 -2 -2 -2 -2 -2 -2 -2 -2 -1 -1 -1 -1 -1 -1 -1 -1 -1 -2
-0 -0 -0 -0 -0 -0 -0 -0 -0 -0 -0 -0 -0 -0 -1 -1 -1 -1 -2 -2 -2 -2 -2 -2 -2 -2 -2 -2 -2 -2 -2 -2 -2 -2 -2 -2 -2 -2 -2 -2 -2 -2 -2 -2 -3 -3 -3 -3 -3 -3 -3 -3 -3 -3 -2 -2 -2 -2 -2 -2 -1 -1 -1 -1 -1 -1 -1 -1 -2
-0 -0 -0 -0 -0 -0 -0 -0 -0 -0 -0 -0 -1 -1 -1 -1 -1 -2 -2 -2 -2 -2 -2 -2 -2 -2 -2 -2 -2 -2 -2 -2 -2 -2 -2 -2 -2 -2 -3 -3 -3 -3 -3 -3 -3 -3 -3 -3 -3 -3 -3 -3 -3 -3 -3 -2 -2 -2 -2 -2 -2 -2 -2 -2 -1 -1 -1 -1 -2
-0 -0 -0 -0 -0 -0 -0 -0 -0 -0 -1 -1 -1 -1 -1 -1 -2 -2 -2 -2 -2 -2 -2 -2 -2 -2 -2 -2 -2 -2 -2 -2 -2 -2 -2 -2 -2 -3 -3 -3 -3 -3 -3 -3 -3 -3 -3 -3 -3 -3 -3 -3 -3 -3 -3 -3 -2 -2 -2 -2 -2 -2 -2 -2 -2 -2 -2 -2 -1
Height
791 791 791 791 791 790 790 790 790 790 790 790 789 789 789 789 788 788 788 787 787 786 786 785 784 783 782 781 781 780 779 778 777 776 776 775 774 773 772 771 771 770 769 768 767 766 766 765 765 764 764 763 763 762 762 761 761 760 759 758 757 756 756 755 755 754 754 753 752
791 791 791 791 791 791 791 790 790 790 790 790 789 789 789 789 789 788 788 787 787 787 786 785 784 784 783 782 781 780 780 779 778 777 776 776 775 774 773 772 771 771 770 769 768 767 767 766 766 765 765 764 763 763 762 761 761 761 760 759 758 757 756 756 755 755 754 754 753
791 791 791 791 791 791 791 791 790 790 790 790 790 789 789 789 789 788 788 788 787 787 786 786 785 784 783 782 781 781 780 779 778 778 777 776 776 775 774 773 772 771 771 770 769 769 768 767 767 766 766 765 764 763 763 762 762 761 761 760 759 759 758 757 756 755 755 754 753
791 791 791 791 791 791 791 791 791 790 790 790 790 790 789 789 789 789 788 788 787 787 786 786 785 784 783 783 782 781 781 780 779 778 777 777 776 775 775 774 773 772 771 771 770 770 769 769 768 767 767 766 765 765 764 763 762 762 761 761 761 760 759 758 757 756 756 755 755
791 791 791 791 791 791 791 791 791 791 791 790 790 790 790 789 789 789 789 788 788 787 787 786 785 784 784 783 782 782 781 780 779 778 778 777 776 776 775 774 774 773 772 771 771 770 770 769 769 769 768 767 767 766 765 764 763 763 762 762 761 761 761 760 759 758 757 756 756
791 791 791 791 791 791 791 791 791 791 791 791 790 790 790 790 789 789 789 789 788 788 787 786 786 785 784 784 783 782 781 781 780 779 778 777 777 776 776 775 774 773 773 772 771 771 770 770 770 770 769 769 768 767 766 765 765 764 763 762 762 761 761 761 760 759 759 758 756
791 791 790 790 791 791 791 791 791 791 791 791 791 790 790 790 790 789 789 789 788 788 787 786 786 785 785 784 783 783 782 781 780 779 779 778 777 776 776 775 775 774 773 773 772 771 771 771 771 770 770 769 769 768 767 766 766 765 764 764 763 762 762 761 761 760 759 758 757
791 790 790 790 790 790 791 791 791 791 791 791 791 790 790 790 790 790 789 789 789 788 788 787 786 786 785 784 784 783 782 781 781 780 779 778 778 777 776 776 775 774 774 773 772 772 771 771 771 771 771 770 770 769 768 768 767 766 766 765 764 763 762 762 761 760 760 759 758
790 790 790 790 790 790 791 791 791 791 791 791 791 790 790 790 790 790 790 789 789 788 788 787 787 786 786 785 784 783 782 782 781 780 780 779 778 777 776 776 775 775 774 773 773 772 772 772 771 771 771 771 771 770 769 768 768 767 766 766 765 764 763 762 762 761 760 759 758
790 790 790 790 790 791 791 791 791 791 791 791 791 791 790 790 790 790 790 789 789 788 788 787 787 786 786 785 784 783 783 782 781 781 780 780 779 778 777 776 776 775 774 774 773 773 772 772 772 771 771 771 771 770 769 769 768 768 767 767 766 765 764 763 762 761 761 760 759
790 790 790 790 790 790 791 791 791 791 791 791 791 791 790 790 790 790 790 789 789 789 788 788 787 786 786 785 784 784 783 783 782 781 781 780 779 779 778 777 777 776 775 775 774 773 773 772 772 771 771 771 771 770 769 769 768 768 767 767 766 766 765 764 763 762 761 760 760
790 790 790 790 790 790 791 791 791 791 791 791 791 791 790 790 790 790 790 790 789 789 788 788 787 786 786 785 785 784 784 783 782 782 781 781 780 780 779 778 777 777 776 775 775 774 773 773 772 771 771 771 770 770 769 769 768 768 767 767 766 766 765 764 763 763 762 761 760
790 790 790 790 790 790 791 791 791 791 791 791 791 790 790 790 790 790 790 790 789 789 788 788 787 786 786 785 785 784 784 783 783 782 782 781 781 780 779 779 778 777 777 776 775 775 774 773 772 772 771 771 770 770 769 769 768 768 767 767 766 766 765 765 764 763 762 761 761
790 789 789 789 790 790 790 790 791 791 791 790 790 790 790 790 790 790 790 790 789 789 788 788 787 786 786 786 785 785 784 784 783 783 782 782 781 781 780 779 779 778 777 776 776 775 774 774 773 772 771 771 770 769 769 768 768 767 767 766 766 766 765 765 764 763 762 762 761
790 789 789 789 789 790 790 790 790 790 790 790 790 790 790 790 790 790 790 789 789 789 788 788 787 787 786 786 785 785 784 784 783 783 782 782 781 781 780 780 779 778 778 777 776 776 775 774 773 772 771 771 770 770 769 768 768 767 767 766 766 765 765 764 764 763 763 762 761
789 789 789 789 789 789 790 790 790 790 790 790 790 790 790 790 790 790 789 789 789 789 788 788 787 786 786 786 785 785 784 784 783 782 782 781 781 780 780 779 779 778 777 777 776 776 775 774 773 772 772 771 770 770 769 768 768 767 766 766 765 765 764 764 763 763 762 762 761
789 789 789 789 789 789 789 790 790 790 790 790 790 790 789 789 789 789 789 789 789 788 788 787 787 786 786 786 785 784 784 783 783 782 781 781 781 780 780 779 778 778 777 777 776 775 775 774 773 772 772 771 770 770 769 768 768 767 766 766 765 765 764 763 763 762 762 761 761
789 788 788 788 789 789 789 789 789 790 790 790 789 789 789 789 789 789 789 789 788 788 787 787 786 786 786 785 785 784 784 783 782 782 781 781 780 780 779 779 778 778 777 776 776 775 774 774 773 772 771 771 770 770 769 768 768 767 766 766 765 764 764 763 762 762 761 761 760
788 788 788 788 788 789 789 789 789 789 789 789 789 789 789 789 789 788 788 788 788 787 787 786 786 786 785 785 785 784 783 783 782 782 781 781 780 780 779 778 778 777 777 776 776 775 774 773 773 772 771 771 770 770 769 768 767 767 766 766 765 764 763 763 762 761 761 760 759
788 788 788 788 788 788 789 789 789 789 789 789 789 788 788 788 788 788 788 788 787 787 786 786 786 786 785 785 784 784 783 783 782 781 781 781 780 779 779 778 777 777 776 776 775 775 774 773 772 772 771 771 770 770 769 768 767 766 766 765 765 764 763 762 762 761 760 759 759
787 787 787 787 788 788 788 788 788 788 788 788 788 788 788 788 788 787 787 787 787 786 786 786 785 785 785 784 784 783 783 782 782 781 781 780 780 779 779 778 777 776 776 776 775 774 774 773 772 772 771 771 770 769 769 768 767 766 765 765 764 763 763 762 761 761 760 759 758
787 787 787 787 787 787 788 788 788 788 788 788 788 787 787 787 787 787 787 787 786 786 786 785 785 784 784 784 783 783 782 782 781 781 781 780 780 779 778 778 777 776 776 775 774 774 773 772 772 771 771 770 770 769 768 767 766 766 765 764 763 762 762 761 761 760 760 759 758
786 786 786 786 786 787 787 787 787 787 787 787 787 787 787 787 787 786 786 786 786 785 785 784 784 784 783 783 782 782 782 781 781 781 780 780 779 778 778 777 776 776 775 775 774 773 773 772 771 771 770 770 769 768 767 766 766 765 764 763 762 761 761 760 760 759 759 758 757
785 785 786 786 786 786 786 786 787 787 787 786 786 786 786 786 786 786 786 785 785 784 784 784 783 783 782 782 782 781 781 781 780 780 779 779 779 778 777 777 776 776 775 775 774 773 773 772 771 771 770 769 768 767 767 766 765 764 763 762 761 761 760 759 759 758 757 757 756
784 785 785 785 786 786 786 786 786 786 786 786 786 786 786 786 785 785 785 784 784 783 783 783 782 782 782 781 781 781 781 780 780 779 779 778 778 777 777 776 776 775 775 774 773 773 773 772 772 771 770 769 768 767 766 765 765 764 763 762 761 760 759 758 757 757 756 756 755
784 784 784 785 785 785 785 785 785 785 785 785 785 785 785 785 785 784 784 784 783 783 782 782 781 781 781 781 781 780 780 780 779 779 778 778 777 777 776 776 776 775 774 774 773 772 772 772 771 771 770 769 768 767 766 765 764 763 762 761 760 759 758 757 756 755 755 754 754
783 783 784 784 784 785 785 785 785 785 785 785 785 785 784 784 784 783 783 783 782 782 781 781 781 781 780 780 780 780 779 779 779 778 778 777 777 776 776 775 775 774 774 773 772 772 771 771 771 770 770 769 768 767 766 764 763 762 761 761 760 759 757 756 755 754 754 753 752
782 783 783 783 784 784 784 784 784 784 784 784 784 784 784 783 783 783 782 782 781 781 781 780 780 780 780 779 779 779 779 778 778 777 777 776 776 776 775 775 774 773 773 772 771 771 771 770 769 769 768 768 767 766 765 764 763 762 761 760 759 758 757 756 755 754 753 752 751
782 782 783 783 783 783 783 783 783 783 783 783 783 783 783 782 782 782 781 781 781 780 780 779 779 779 779 779 778 778 778 777 777 776 776 775 775 774 774 773 773 772 771 771 770 770 769 768 768 767 767 767 766 765 764 763 762 761 760 759 758 757 756 755 754 753 752 751 750
781 782 782 782 783 783 783 783 783 783 783 783 783 782 782 782 781 781 781 780 780 779 779 779 778 778 778 778 778 777 777 776 776 776 775 774 774 773 773 772 771 771 770 769 768 768 767 767 766 766 765 765 765 764 763 762 761 760 759 758 757 756 755 754 753 752 751 750 749
781 781 781 782 782 782 782 782 782 782 782 782 782 781 781 781 781 780 780 779 779 778 778 778 778 778 777 777 777 776 776 776 775 775 774 773 772 772 771 771 770 769 768 767 767 766 766 765 764 764 763 763 763 762 761 760 760 759 757 756 756 755 754 753 752 751 750 749 748
780 781 781 781 782 782 782 782 782 782 781 781 781 781 781 780 780 779 779 778 778 778 777 777 777 777 777 776 776 776 775 775 774 773 773 772 771 771 770 769 768 767 766 766 765 764 764 763 762 762 761 761 761 760 759 758 757 756 756 755 754 753 752 751 751 749 748 748 747
780 780 781 781 781 781 781 781 781 781 781 781 780 780 780 779 779 778 778 778 777 777 777 777 777 776 776 776 775 775 774 773 773 772 771 771 770 769 768 767 766 765 765 764 763 763 762 761 760 760 759 759 758 758 757 756 755 754 753 752 751 751 750 750 749 748 747 746 746
779 780 780 780 781 781 781 781 781 780 780 780 780 779 779 778 778 777 777 777 777 777 776 776 776 776 775 775 774 774 773 772 771 771 770 770 769 768 767 766 765 764 763 762 762 761 760 759 758 758 757 757 756 755 755 754 753 752 751 750 749 749 748 747 747 746 745 744 744
779 779 779 780 780 780 780 780 780 779 779 779 778 778 777 777 777 776 776 776 776 776 776 776 775 775 774 774 773 772 772 771 770 769 769 768 767 766 766 764 763 762 761 761 760 759 758 757 756 756 755 755 754 753 752 751 751 750 749 748 747 746 746 745 745 744 743 742 741
778 778 778 779 779 779 779 779 778 778 778 778 777 777 776 776 776 776 776 775 775 775 775 775 774 774 773 773 772 771 771 770 769 768 767 767 766 765 764 763 761 761 760 759 758 757 756 755 754 754 753 753 752 751 750 749 748 747 746 745 744 744 743 743 742 741 741 740 739
777 777 777 778 778 778 778 777 777 777 776 776 776 775 775 775 775 775 775 775 774 774 774 773 773 773 772 772 771 770 770 769 768 767 766 765 764 763 762 761 759 758 757 757 756 755 754 753 752 752 751 751 750 749 748 747 746 745 744 743 742 741 741 740 740 739 738 737 736
776 776 776 776 776 776 776 776 776 776 775 775 775 774 774 774 774 774 774 774 774 773 773 772 772 771 771 770 770 769 768 767 766 766 764 763 763 762 761 759 757 756 755 754 754 753 752 751 750 750 750 749 748 747 746 745 744 743 742 741 740 739 739 738 737 736 736 735 734
775 776 776 776 776 776 775 775 775 774 774 774 774 774 774 774 773 773 773 773 773 772 771 771 770 770 769 769 768 767 766 766 765 764 763 762 761 760 759 757 755 754 753 752 751 750 750 749 748 748 747 747 746 746 744 743 742 741 740 739 738 737 736 736 735 734 733 732 731
774 774 774 775 775 774 774 774 774 773 773 773 773 773 773 773 773 772 772 772 771 771 770 770 769 768 768 767 766 765 764 763 763 762 761 760 759 757 756 755 753 751 750 750 749 748 747 746 746 745 745 745 744 744 743 741 740 739 738 737 736 736 734 734 733 732 731 730 729
773 773 773 773 773 773 773 773 773 772 772 772 772 772 772 772 772 771 771 771 770 770 769 768 767 767 766 766 765 764 762 761 760 760 759 757 756 755 754 753 751 749 748 747 746 745 744 744 743 743 743 743 742 741 741 740 738 737 736 735 735 734 733 732 731 730 729 728 727
Wind_Speed
13 13 12 12 12 12 12 13 13 14 14 13 13 12 12 12 12 13 13 13 13 13 13 14 16 18 20 21 22 23 23 24 25 26 26 27 28 29 29 29 29 30 30 29 28 26 24 22 19 17 17 18 18 18 18 19 19 18 18 19 19 19 20 19 19 20 20 19 19
13 14 14 14 13 12 12 12 13 14 14 14 14 13 13 13 12 13 14 14 14 14 14 15 17 19 20 21 22 23 23 24 25 25 26 27 28 28 28 28 29 29 29 29 28 26 24 23 21 19 18 18 19 19 19 20 19 18 17 18 19 19 19 19 20 20 19 19 20
13 14 14 13 13 12 12 12 12 13 13 13 14 14 13 13 13 13 14 14 15 16 16 17 18 20 20 21 21 22 23 24 24 25 26 26 27 27 27 28 28 29 29 29 28 27 25 23 21 20 19 19 19 20 20 20 19 18 17 17 18 18 19 19 20 20 19 19 20
13 13 13 13 13 12 12 12 12 12 12 13 13 14 14 14 14 14 14 15 16 17 18 19 20 20 21 21 21 22 22 23 24 25 25 26 26 27 27 27 28 28 28 28 28 27 26 24 22 21 20 19 20 20 21 20 19 18 16 16 17 17 17 18 19 19 19 19 19
12 12 12 12 12 12 12 12 12 12 12 13 13 13 13 14 14 14 15 15 16 17 18 19 20 20 20 21 21 22 22 23 24 24 25 25 26 26 26 27 28 28 28 28 28 27 26 24 22 20 20 19 20 21 22 22 20 18 17 16 16 17 17 18 17 17 18 19 19
12 11 11 11 11 11 12 12 12 12 13 13 12 12 13 13 14 14 14 14 15 16 17 18 19 19 20 20 21 22 22 23 23 24 25 25 25 25 26 27 27 27 27 27 27 27 26 24 21 20 20 19 19 21 23 22 21 19 18 17 16 17 17 17 17 17 17 19 19
11 11 10 10 10 10 10 11 11 12 12 12 12 12 12 13 13 13 13 14 15 16 17 17 18 19 19 20 20 21 21 22 23 24 24 25 25 25 26 26 26 26 26 26 27 26 25 23 21 20 19 18 18 20 22 23 21 20 19 17 17 17 17 18 18 17 17 19 19
10 10 9 9 9 9 9 10 10 10 10 10 11 11 12 12 12 12 12 13 14 15 16 16 17 17 18 18 19 19 20 21 22 22 23 24 25 25 26 26 27 26 26 26 26 26 25 22 21 20 19 18 17 19 21 21 21 20 19 17 17 18 18 18 18 18 17 18 19
9 9 8 8 8 8 8 9 9 9 9 10 10 10 11 11 11 11 12 12 13 14 14 15 15 16 17 17 18 18 19 20 20 21 22 22 23 24 25 26 27 27 26 25 25 25 24 22 21 20 19 17 17 18 19 20 20 20 18 17 17 18 18 18 18 18 18 18 18
9 8 8 8 7 7 7 8 8 8 8 9 9 9 10 10 10 11 11 12 13 13 13 14 14 15 16 16 17 18 19 19 19 20 20 21 21 22 23 24 25 26 26 26 25 25 24 22 21 20 19 18 17 18 19 19 19 18 18 17 17 18 19 19 19 19 19 19 18
8 7 7 7 6 6 6 7 7 7 7 8 8 8 8 9 9 10 10 11 12 12 12 13 14 15 15 16 17 17 18 18 18 19 19 19 20 20 21 22 23 23 24 25 25 25 24 23 22 21 20 19 18 18 18 19 18 18 17 17 17 17 18 19 19 19 18 18 18
7 6 6 6 6 6 6 6 6 6 6 7 7 7 7 8 8 9 10 10 10 11 11 13 14 14 15 16 16 17 17 17 18 18 18 18 19 19 19 20 21 21 22 23 24 25 24 24 23 23 22 21 19 19 18 18 17 17 16 16 17 17 17 18 19 19 18 18 17
6 6 6 6 5 5 5 5 5 6 6 6 6 6 7 7 7 8 8 9 9 10 11 12 13 14 15 15 16 16 17 17 17 17 17 18 18 18 19 19 19 20 21 21 22 23 23 23 23 24 23 23 21 20 19 18 17 16 16 16 16 16 16 17 17 18 18 18 17
6 6 6 6 5 5 5 5 5 5 5 5 6 6 6 6 6 7 7 8 9 10 11 12 13 14 14 15 15 16 16 16 17 17 17 17 18 18 19 19 19 19 20 20 21 21 22 22 22 23 23 23 22 21 21 20 18 17 16 16 15 15 15 15 16 16 17 17 18
6 6 6 5 5 5 5 5 5 5 5 5 5 5 5 5 6 6 7 8 8 9 10 11 12 13 14 15 15 16 16 16 17 17 18 18 18 19 19 19 20 20 20 20 21 21 21 21 22 22 22 22 22 22 22 21 20 19 18 17 16 15 15 15 15 15 15 16 16
6 6 6 5 5 5 5 5 5 5 5 5 4 4 4 5 5 6 7 7 8 9 10 11 12 13 14 15 16 16 17 17 18 18 19 19 19 20 20 20 20 21 21 21 22 22 22 22 22 21 21 21 21 21 21 21 21 20 20 19 18 17 16 15 15 14 14 15 15
7 6 6 6 5 5 5 5 5 5 4 4 4 4 4 4 5 5 6 7 8 9 10 11 12 14 15 15 16 17 18 18 19 19 19 20 20 20 21 21 21 22 22 22 22 23 23 23 23 22 21 20 20 20 20 20 20 20 21 21 20 19 18 17 16 15 15 14 14
7 7 6 6 6 5 5 5 4 4 4 3 3 3 3 3 4 5 6 7 8 9 10 12 13 14 15 16 17 18 18 19 19 20 20 20 21 21 21 21 22 22 22 22 22 22 23 23 22 22 20 19 18 18 18 18 19 19 20 20 21 21 20 19 19 17 16 15 15
8 7 7 6 6 5 5 5 4 4 3 2 2 2 2 3 4 5 6 7 8 9 11 12 13 14 15 16 17 18 19 19 20 20 21 21 22 22 22 22 22 22 22 22 22 22 22 22 21 20 18 17 16 16 16 16 16 17 18 19 20 20 21 21 21 20 19 18 17
8 7 7 7 6 5 5 4 4 3 3 2 1 1 2 3 3 5 6 7 8 9 11 12 13 14 15 16 17 18 18 19 20 21 21 22 23 23 23 23 23 23 23 22 21 21 21 21 20 18 17 16 15 15 15 15 15 15 16 16 17 19 20 21 22 22 22 21 20
8 7 7 6 6 5 5 4 4 3 2 2 1 1 2 2 3 4 6 7 8 9 11 12 13 14 15 16 17 17 18 19 20 20 21 22 23 24 24 24 25 25 24 23 23 22 22 21 19 17 16 16 15 16 16 16 16 16 15 15 15 16 18 20 21 21 22 22 22
8 7 7 6 6 5 5 4 4 3 2 1 0 1 2 3 3 4 6 7 8 9 11 12 13 14 15 16 17 17 18 19 20 20 21 22 23 24 24 25 25 25 25 24 24 24 23 22 20 18 17 17 17 17 17 17 17 17 16 16 16 16 16 17 19 20 21 22 22
7 7 6 6 6 5 5 4 4 3 2 1 1 1 2 3 4 5 6 7 9 10 11 12 13 14 15 16 17 18 19 19 20 21 22 22 23 24 24 25 25 25 24 24 24 24 23 22 21 20 19 18 18 18 18 18 18 17 17 17 17 17 17 17 17 18 20 21 21
7 7 6 6 6 5 5 4 4 3 2 2 2 2 3 4 5 6 7 8 9 11 12 13 14 15 16 17 17 18 19 20 21 21 22 22 23 23 24 24 24 23 23 23 23 23 23 21 20 20 20 20 19 19 19 19 18 18 18 18 19 19 18 18 17 17 18 19 20
7 7 6 6 6 6 5 5 4 3 3 3 3 3 4 5 6 7 8 9 10 11 12 13 14 15 16 17 18 18 19 19 20 21 22 22 23 23 23 23 22 21 21 22 24 23 22 20 19 19 19 19 20 20 20 19 19 19 19 19 19 19 19 19 19 18 18 18 18
7 7 7 6 6 6 5 5 4 4 3 3 3 4 5 6 7 8 9 10 11 12 12 13 14 15 16 17 17 18 18 19 19 20 21 22 23 23 23 22 21 21 21 22 23 23 22 20 19 19 19 19 19 19 19 20 20 20 20 20 20 20 20 20 20 19 18 18 17
7 7 7 6 6 6 5 5 4 4 4 4 4 5 5 6 7 8 9 10 11 12 13 14 15 16 16 17 17 18 18 19 19 20 20 21 22 22 22 22 21 21 22 23 23 23 22 21 20 19 18 18 18 18 18 19 20 20 20 20 20 19 19 20 20 20 19 19 18
7 7 7 6 6 6 5 4 4 4 4 4 5 5 6 7 8 9 10 11 12 13 13 14 15 16 16 16 17 18 18 19 19 20 20 21 22 22 22 21 21 21 22 24 24 23 23 22 21 20 19 18 17 17 17 18 19 19 20 20 20 20 20 20 20 20 20 20 19
7 7 6 6 5 5 5 4 4 4 4 4 5 6 7 8 8 9 10 11 12 13 14 14 15 16 16 16 17 18 19 19 19 20 20 21 21 22 21 21 21 22 23 25 25 24 23 22 22 21 20 18 17 17 17 17 17 18 19 19 19 20 20 20 21 21 21 21 21
7 6 6 5 5 4 4 4 4 4 4 5 6 6 7 8 9 10 11 12 13 13 14 15 16 16 17 17 18 18 18 18 19 19 20 21 21 21 21 21 22 23 25 26 26 25 24 23 22 21 20 19 18 18 17 17 17 18 18 19 19 20 21 21 21 22 22 21 21
7 6 5 5 4 4 3 3 4 4 5 5 6 7 8 8 9 10 11 12 13 14 15 15 16 17 17 17 17 17 17 18 18 19 20 20 21 21 22 23 24 25 27 27 27 25 24 23 23 22 21 20 19 18 18 18 18 19 19 19 20 21 21 21 22 22 22 22 22
6 6 5 4 3 3 3 3 4 4 5 6 7 7 8 9 10 11 12 13 14 15 15 16 17 17 17 17 17 17 17 18 19 19 20 20 21 22 23 24 25 27 28 29 28 26 25 24 24 23 22 21 20 19 19 19 19 19 20 20 21 21 22 21 22 22 22 22 22
6 5 4 3 3 2 3 3 4 5 6 6 7 8 9 10 11 12 13 13 14 14 15 15 16 16 16 16 17 17 18 19 19 20 21 21 22 23 24 25 26 28 29 30 29 28 27 26 25 24 23 22 21 20 19 19 19 19 19 20 20 21 21 22 22 22 23 23 23
5 4 3 2 2 2 2 3 4 5 6 7 8 9 10 11 12 13 14 14 14 14 14 14 14 15 15 16 16 17 18 19 20 21 21 22 22 23 24 25 27 29 30 30 29 28 28 27 26 25 23 22 21 20 19 19 19 19 20 21 21 21 22 22 22 23 23 24 23
4 3 2 1 1 2 3 4 5 6 7 8 9 10 11 12 13 14 14 15 15 14 14 13 14 14 15 15 16 16 17 18 20 21 21 22 23 23 24 25 27 28 30 30 29 28 28 28 26 25 23 22 21 19 19 19 19 20 20 21 22 22 22 22 23 23 23 23 23
4 2 1 0 1 3 4 5 7 8 9 10 11 12 13 13 14 14 15 15 15 14 13 13 14 14 14 14 15 15 16 17 19 20 21 22 23 23 24 25 27 28 29 29 29 28 28 27 26 25 23 22 20 19 19 19 19 20 21 21 22 22 23 23 22 22 22 22 23
3 2 1 1 3 4 5 7 8 9 10 11 12 13 13 14 15 15 15 15 14 13 13 13 14 14 15 15 16 16 17 18 19 20 21 22 22 23 24 25 26 27 28 29 29 28 27 27 26 24 23 22 21 20 20 20 20 20 21 21 22 22 22 22 22 22 22 22 22
3 2 2 3 4 5 6 8 9 10 11 12 13 13 14 15 15 15 14 14 13 13 13 14 14 15 16 17 17 18 19 19 19 20 21 22 22 22 23 25 26 27 28 28 28 28 27 27 26 25 23 22 21 21 20 20 20 20 20 21 21 21 21 21 21 21 21 22 22
3 4 4 4 5 6 7 9 10 11 12 13 13 14 14 15 14 14 14 14 13 13 14 15 15 16 17 17 18 19 20 20 20 21 21 22 22 23 24 25 26 27 28 28 28 27 27 27 26 25 24 22 21 20 20 19 20 20 21 20 21 21 21 21 20 20 21 21 22
4 4 5 5 6 7 8 9 10 11 12 12 13 14 14 14 14 14 14 13 13 14 14 15 16 17 17 18 18 19 20 21 21 22 22 23 24 24 25 25 27 28 28 28 28 28 27 27 26 25 24 22 21 20 19 19 20 20 20 20 20 20 20 20 20 20 20 21 21
4 4 5 5 6 7 8 9 10 11 12 12 13 13 14 15 14 14 14 13 14 14 15 15 17 17 18 18 19 20 21 22 23 23 23 24 25 25 25 26 27 28 28 28 28 28 27 26 26 25 24 22 21 20 19 19 20 20 21 21 20 20 20 20 20 20 20 21 21
Wind_Direction
85 84 82 80 77 75 72 70 67 65 63 60 58 55 52 48 45 42 41 39 37 34 31 30 31 31 30 30 30 30 30 29 28 28 28 28 28 28 28 27 27 27 27 27 26 25 23 22 22 22 21 20 19 19 18 17 17 17 18 20 21 22 22 22 22 21 21 21 21
84 82 80 78 76 75 72 69 67 65 62 60 58 56 54 50 46 43 41 39 38 35 33 31 30 30 30 29 28 28 28 28 28 27 27 27 27 27 26 26 26 26 27 27 27 26 24 22 21 20 19 17 17 17 16 15 15 15 16 17 18 18 19 20 19 19 19 20 19
84 81 79 78 76 74 73 70 67 64 62 60 59 56 54 51 48 45 41 39 37 34 32 31 30 29 28 27 26 25 25 25 25 26 26 26 26 26 26 26 25 26 26 26 27 27 26 24 22 20 18 16 15 15 13 12 12 13 14 15 15 15 16 16 16 17 17 17 18
86 83 82 81 79 78 75 72 68 65 63 60 58 56 53 50 47 44 41 38 35 33 31 29 28 26 26 25 24 23 23 22 22 23 24 24 24 25 25 24 25 25 25 25 26 27 27 27 25 22 19 17 15 14 12 10 10 11 13 14 14 14 14 13 13 14 14 14 15
90 86 84 81 79 76 73 71 69 66 63 60 57 53 50 48 46 42 38 35 34 31 29 27 26 25 23 23 22 21 20 20 20 20 21 21 22 22 22 23 24 24 24 24 25 26 27 27 26 23 21 18 16 13 12 10 9 9 10 12 12 13 12 11 10 10 11 11 11
94 89 85 81 78 74 71 68 66 65 62 59 56 53 49 46 44 41 37 34 31 29 26 25 24 23 22 21 20 19 19 18 18 18 18 18 18 19 20 21 21 22 22 22 23 24 25 26 25 23 21 19 16 13 12 12 11 9 9 10 10 10 10 9 8 8 8 8 9
98 93 88 83 78 74 70 66 63 61 60 57 55 53 50 46 44 41 37 33 30 28 26 25 24 22 21 20 19 18 18 17 17 16 15 15 15 15 16 17 18 19 20 20 20 22 23 25 24 22 20 19 15 12 12 13 12 10 8 7 7 7 7 6 6 6 6 7 7
100 95 89 84 78 73 70 66 63 61 58 55 54 51 48 44 43 39 35 33 31 29 28 26 24 23 22 20 19 18 18 17 16 15 14 12 12 11 12 13 14 16 17 17 18 20 21 22 22 21 19 17 14 11 11 13 12 11 9 6 5 4 4 3 4 4 4 5 6
105 99 91 84 78 73 69 66 64 61 59 55 52 49 45 42 40 38 36 35 33 31 29 27 26 25 24 22 21 20 20 19 17 16 14 12 11 9 9 9 10 11 13 14 15 16 18 19 18 18 18 16 13 11 11 11 11 11 9 6 3 2 1 1 1 2 2 3 4
111 105 98 91 83 76 71 68 65 62 59 56 52 47 43 40 38 37 37 36 35 33 31 29 28 27 26 25 24 23 22 20 19 17 16 14 12 11 10 8 7 8 8 10 11 12 13 14 13 13 14 13 11 10 9 10 9 9 8 5 2 0 360 360 0 0 360 0 0
116 111 106 99 91 83 77 75 72 67 63 59 54 49 45 42 39 38 38 38 36 34 31 30 30 29 28 27 26 25 24 22 21 19 18 17 15 14 12 10 8 7 6 6 7 8 9 8 8 7 8 8 7 6 6 6 6 6 5 3 1 359 358 358 358 358 358 357 357
123 118 113 107 100 92 88 85 81 75 70 64 59 55 50 46 43 41 40 40 37 34 32 32 32 31 29 29 28 27 26 24 23 22 20 19 17 16 14 12 10 8 7 5 5 5 5 4 3 2 2 2 2 1 1 2 2 2 1 359 359 358 356 356 356 355 354 354 354
131 126 120 115 109 104 100 96 89 82 76 69 64 60 55 50 46 44 42 40 37 35 33 33 32 31 30 30 28 27 26 25 24 23 22 20 19 17 16 14 13 11 9 7 6 5 3 2 1 360 359 358 357 356 356 357 357 356 356 355 355 354 353 352 352 352 351 351 350
138 133 127 121 118 115 110 103 95 88 82 75 68 63 59 54 48 45 42 39 37 35 34 34 32 31 30 29 27 26 25 24 23 22 22 20 19 17 16 15 13 12 10 8 7 5 3 2 360 358 357 356 354 353 352 352 352 352 351 350 349 348 348 347 347 348 347 347 347
144 138 133 128 124 120 114 107 100 94 88 81 73 66 60 54 47 43 40 37 35 34 33 32 31 29 28 26 24 23 22 21 20 19 18 17 16 15 14 12 11 10 9 7 6 5 3 1 359 358 356 354 353 351 349 349 348 347 346 345 344 343 343 342 342 343 343 343 342
148 142 136 132 129 125 119 112 107 102 97 89 79 70 61 53 45 39 36 34 32 31 30 28 27 25 24 22 19 18 17 16 15 14 13 12 11 10 9 8 7 6 4 4 3 2 1 360 358 357 355 354 352 351 349 347 345 344 342 342 341 340 339 338 338 337 337 336 336
151 146 141 138 136 133 127 121 115 112 107 98 86 74 62 49 40 34 30 28 27 26 25 23 22 21 19 17 15 13 12 12 11 10 9 8 7 5 4 3 2 1 0 359 358 358 358 357 357 356 355 353 351 349 348 346 344 342 340 339 338 337 336 335 334 333 332 331 330
155 152 149 147 145 143 137 132 127 123 118 108 96 79 62 46 35 28 24 22 21 20 19 18 17 16 15 13 11 10 8 8 7 6 4 3 2 1 360 359 358 357 356 355 355 354 354 354 355 354 352 350 347 345 343 342 341 340 339 337 336 334 333 332 332 331 329 327 325
160 158 157 156 155 152 148 144 141 136 130 120 105 82 59 40 27 22 19 18 16 15 14 14 13 12 10 9 7 6 5 4 3 1 0 359 358 357 356 355 354 353 353 352 352 351 352 352 352 350 348 344 341 338 336 335 334 334 334 334 333 332 331 330 329 328 327 325 324
163 162 163 162 162 160 159 156 155 151 147 139 116 78 48 28 18 15 15 14 12 10 10 10 9 8 6 4 3 2 1 360 359 357 356 355 355 354 353 352 351 350 350 350 349 349 350 350 349 346 343 338 334 332 330 329 327 326 326 327 328 329 329 328 327 326 325 324 322
167 167 168 169 169 168 168 169 169 170 167 160 135 58 25 13 9 9 8 8 7 7 7 6 5 3 2 1 360 359 357 356 355 354 353 352 351 350 349 349 348 347 347 347 347 347 348 347 346 343 338 335 331 329 327 325 323 322 320 320 319 321 323 324 324 324 322 321 320
172 172 174 174 176 177 179 182 186 188 190 192 221 340 353 358 360 1 2 2 3 4 4 2 1 360 358 358 356 355 354 353 352 351 350 350 349 348 347 346 345 345 344 344 344 345 345 345 343 340 336 333 330 328 325 323 321 319 317 316 315 314 315 316 318 319 319 319 318
177 178 178 180 184 187 190 194 199 204 211 229 273 313 332 343 349 353 356 358 0 1 0 359 357 356 355 354 353 352 351 350 350 349 349 348 347 346 345 344 343 342 341 341 341 342 342 341 340 337 334 331 328 326 324 322 320 318 316 315 313 312 311 310 310 312 314 315 315
182 182 183 186 190 194 198 203 210 218 229 252 283 309 325 335 341 347 351 355 358 358 357 355 354 353 353 352 351 351 350 349 348 347 346 345 345 344 343 342 341 340 338 337 338 339 340 338 335 333 330 328 326 323 321 320 318 316 314 313 312 311 309 308 307 306 306 308 310
186 186 188 191 195 201 206 212 218 229 244 268 292 311 324 334 340 346 351 355 355 355 354 352 352 351 351 350 350 349 348 347 345 344 343 342 341 341 341 340 338 336 334 333 334 336 335 333 330 327 325 323 322 320 318 317 315 314 312 311 309 308 307 307 306 304 303 302 303
191 191 192 196 201 206 213 219 228 242 260 281 301 316 327 335 341 346 350 352 352 351 351 350 350 349 349 348 347 346 345 344 342 341 339 339 338 338 338 337 335 332 330 330 331 331 330 327 324 322 320 319 317 316 315 313 312 311 310 308 307 305 305 304 304 303 302 301 300
194 195 197 201 206 212 218 228 241 257 274 293 308 320 328 335 341 345 348 349 349 349 348 348 348 348 347 345 344 342 341 340 339 338 337 336 335 335 334 333 331 328 327 327 327 326 325 322 321 319 317 315 313 312 310 309 308 308 307 305 304 303 301 301 301 301 301 300 299
197 199 202 206 210 216 225 238 251 267 283 300 313 322 330 336 340 344 346 346 346 347 347 347 346 345 344 342 340 338 337 336 335 335 334 333 332 331 330 328 326 324 323 324 323 323 321 320 319 318 316 313 311 308 306 304 304 303 303 302 301 300 299 298 298 299 299 298 298
200 202 205 207 212 220 232 245 260 275 292 306 317 325 331 337 341 343 343 344 345 346 346 344 342 341 340 337 335 334 333 333 332 331 330 329 329 327 326 324 321 320 320 321 321 320 319 318 316 315 314 311 309 306 303 301 299 298 297 296 296 295 295 295 295 295 296 296 296
202 204 205 207 213 224 237 252 268 286 300 311 320 328 333 338 341 342 342 342 343 343 342 340 337 336 335 333 332 330 329 328 328 327 327 325 324 323 321 320 318 317 318 319 319 318 317 315 314 312 310 309 306 303 300 297 294 293 291 290 289 289 289 290 291 291 292 293 293
202 203 205 208 214 226 242 261 279 294 307 316 325 330 335 338 339 340 340 340 339 338 337 335 333 332 330 329 327 326 324 323 323 323 322 321 320 319 318 317 316 316 317 318 318 316 314 312 311 309 307 306 304 301 297 294 291 288 286 284 283 283 284 285 286 287 288 289 290
200 201 203 206 213 229 251 272 290 304 315 323 329 333 335 336 337 338 338 337 336 335 333 331 329 328 326 324 322 320 319 318 318 318 318 317 316 316 315 315 314 315 316 317 316 314 312 310 309 307 305 304 302 299 295 291 288 285 282 280 278 278 278 279 281 282 284 285 286
197 199 200 205 217 242 267 287 302 315 323 329 333 334 335 336 337 337 336 335 333 331 328 326 323 321 319 317 316 315 314 314 314 315 315 315 314 313 313 312 312 312 314 315 314 312 310 309 307 305 304 304 302 298 294 290 286 283 280 278 276 275 275 275 276 278 279 280 282
192 194 199 210 233 265 293 308 319 326 332 334 335 335 336 337 336 335 334 331 329 326 322 319 316 313 311 310 310 309 309 310 311 312 312 312 311 310 309 308 308 309 311 311 310 308 307 306 305 304 303 303 301 298 294 289 285 282 279 277 276 275 274 273 273 274 275 276 277
185 187 195 218 273 307 319 327 331 334 336 336 336 337 338 337 335 333 330 327 323 320 316 312 309 307 306 305 305 304 304 305 306 307 307 308 307 306 305 303 304 305 306 306 305 304 303 303 303 302 302 302 300 296 293 289 286 282 280 278 276 275 274 273 272 273 273 273 274
175 174 180 262 332 336 338 339 340 340 340 339 339 339 338 336 333 329 326 322 319 315 309 306 305 303 301 300 300 300 299 300 301 302 303 303 302 301 299 298 299 300 301 301 300 300 300 300 300 300 300 300 297 294 291 288 286 283 280 278 277 276 275 274 273 272 272 271 271
155 138 87 21 2 354 350 348 347 345 344 343 342 340 336 333 329 325 322 319 315 309 305 303 302 301 300 299 299 298 297 297 297 297 298 298 296 295 294 293 294 295 296 297 297 297 296 296 296 297 297 297 295 292 290 287 284 282 280 278 277 277 276 275 274 273 271 270 269
119 86 54 30 14 4 358 355 352 350 347 345 342 339 335 330 326 321 318 315 309 305 302 300 299 298 299 299 298 297 296 295 294 293 293 293 291 290 290 290 291 292 293 294 294 293 293 294 294 294 294 294 292 290 288 285 282 280 279 278 278 277 276 276 275 274 273 270 268
92 67 48 32 19 9 3 359 356 352 348 344 341 336 332 326 321 316 313 310 305 301 299 297 296 296 297 297 297 296 294 293 292 290 289 289 288 288 287 288 289 290 291 291 291 291 291 291 291 292 292 291 289 287 285 282 280 278 277 277 277 277 276 275 275 275 273 272 270
79 60 44 30 18 10 5 360 356 352 348 342 337 332 327 321 316 312 310 306 302 299 297 295 294 295 296 295 294 293 293 292 291 289 288 287 288 287 287 287 287 288 289 289 289 289 290 290 290 290 290 289 287 285 283 280 278 277 276 275 275 276 276 275 275 274 274 274 273
71 53 37 24 13 6 1 356 352 349 344 338 332 326 321 317 313 309 306 302 298 296 295 294 293 293 294 293 292 291 291 290 290 289 289 289 288 288 287 287 287 288 288 288 289 289 289 289 289 289 288 287 285 283 281 278 276 275 274 273 273 273 274 275 275 274 274 274 274